This is the latest recevied weather packets stored in our database for station/object K0WOI. If no packets are shown the sender has not sent any weather packets the latest 1 day(s).
| Time | Temp. | Humidity | Pressure | Rain* | Wind** | Luminosity | Snow |
|---|---|---|---|---|---|---|---|
| 1778012681 | 15.56° C | 31% | 1010.4 hPa | 0 mm | 1.34 m/s, 229° | 433 W/m² | - |
| 1778012377 | 15.56° C | 29% | 1010.7 hPa | 0 mm | 1.79 m/s, 311° | 347 W/m² | - |
| 1778012074 | 15.56° C | 31% | 1010.2 hPa | 0 mm | 2.24 m/s, 329° | 545 W/m² | - |
| 1778011772 | 15° C | 33% | 1010.5 hPa | 0 mm | 0.89 m/s, 256° | 241 W/m² | - |
| 1778011470 | 15.56° C | 30% | 1010.5 hPa | 0 mm | 3.13 m/s, 281° | 469 W/m² | - |
| 1778011165 | 15.56° C | 31% | 1010.5 hPa | 0 mm | 2.24 m/s, 326° | 279 W/m² | - |
| 1778010862 | 15.56° C | 30% | 1010.4 hPa | 0 mm | 3.13 m/s, 282° | 531 W/m² | - |
| 1778010560 | 16.11° C | 29% | 1010.7 hPa | 0 mm | 3.58 m/s, 354° | 525 W/m² | - |
| 1778010257 | 15.56° C | 30% | 1010.4 hPa | 0 mm | 0.45 m/s, 314° | 674 W/m² | - |
| 1778009957 | 16.11° C | 33% | 1010.6 hPa | 0 mm | 2.68 m/s, 233° | 618 W/m² | - |
| 1778009655 | 15.56° C | 31% | 1010.7 hPa | 0 mm | 2.24 m/s, 326° | 626 W/m² | - |
| 1778009353 | 15° C | 32% | 1010.3 hPa | 0 mm | 1.79 m/s, 303° | 464 W/m² | - |
| 1778009050 | 15° C | 31% | 1010.3 hPa | 0 mm | 3.58 m/s, 235° | 506 W/m² | - |
| 1778008748 | 16.11° C | 33% | 1010.8 hPa | 0 mm | 1.34 m/s, 252° | 613 W/m² | - |
| 1778008446 | 15° C | 34% | 1010.6 hPa | 0 mm | 1.34 m/s, 252° | 177 W/m² | - |
| 1778008143 | 15.56° C | 32% | 1010.8 hPa | 0 mm | 2.68 m/s, 317° | 279 W/m² | - |
| 1778007838 | 15.56° C | 35% | 1010.7 hPa | 0 mm | 1.34 m/s, 287° | 330 W/m² | - |
| 1778007533 | 15° C | 35% | 1010.7 hPa | 0 mm | 1.34 m/s, 320° | 441 W/m² | - |
| 1778007230 | 15.56° C | 33% | 1010.9 hPa | 0 mm | 2.24 m/s, 324° | 623 W/m² | - |
| 1778006927 | 15° C | 37% | 1010.8 hPa | 0 mm | 0.89 m/s, 333° | 501 W/m² | - |
| 1778006624 | 15° C | 37% | 1010.6 hPa | 0 mm | 0.89 m/s, 276° | 708 W/m² | - |
| 1778006321 | 15° C | 33% | 1010.7 hPa | 0 mm | 1.79 m/s, 248° | 610 W/m² | - |
| 1778006017 | 15° C | 33% | 1010.8 hPa | 0 mm | 3.58 m/s, 247° | 649 W/m² | - |
| 1778005714 | 14.44° C | 34% | 1010.9 hPa | 0 mm | 2.24 m/s, 238° | 218 W/m² | - |
| 1778005411 | 14.44° C | 33% | 1010.8 hPa | 0 mm | 1.34 m/s, 325° | 237 W/m² | - |
* Rain latest hour (hover to see other rain measurements)
** Current wind speed in m/s (hover to see current wind gust speed)